EHI
20 20 18 16 14 16 16 16 18 19 21 22 21 20 17 14 12 9 6 3 1 1 1 0 0 0 0 1 1 1 0 0 0 0 1 6 11 10 5 3 1 1 1
20 20 19 18 16 16 16 14 15 18 21 23 22 20 18 16 15 12 7 3 1 1 1 1 0 0 1 2 2 2 1 0 0 0 1 6 11 11 9 6 2 1 1
20 20 20 19 17 17 15 14 16 19 22 23 22 19 17 18 17 14 7 3 1 1 1 1 1 2 3 4 4 3 2 1 1 1 2 5 7 9 10 6 2 1 1
24 24 22 21 19 17 15 16 21 23 23 22 21 18 17 17 16 14 9 5 4 3 2 2 2 4 5 6 5 5 4 2 2 2 2 3 3 4 6 4 1 0 0
33 31 29 27 25 21 20 22 26 28 26 25 23 20 17 15 13 12 12 10 9 8 7 6 4 4 5 5 4 4 4 4 3 3 3 1 1 1 2 2 1 0 0
39 36 34 33 31 30 29 31 32 33 34 32 28 23 18 13 8 7 10 13 13 13 13 11 6 3 2 2 2 1 2 3 3 2 2 1 0 0 0 0 0 0 0
39 36 33 33 33 33 34 36 37 37 37 35 30 25 20 13 5 2 5 11 14 15 16 14 9 4 2 2 1 0 0 1 1 1 1 0 0 0 0 0 0 0 0
37 34 32 32 32 33 34 37 39 38 36 35 33 29 22 13 5 1 2 7 12 14 15 13 11 7 3 2 2 0 0 0 0 0 0 0 0 0 0 0 0 0 0
37 35 33 33 33 34 33 34 38 38 37 35 34 32 24 14 5 1 1 4 8 11 11 9 7 5 2 1 1 0 1 1 0 0 0 0 0 0 0 0 0 0 0
39 38 36 36 36 35 35 34 36 38 36 32 30 29 23 13 5 1 1 3 6 7 7 5 3 2 0 0 0 0 1 1 0 0 0 0 0 0 0 0 0 0 0
40 40 38 35 33 35 37 36 35 34 31 27 24 21 16 10 4 0 0 1 3 4 4 3 2 0 0 0 0 0 1 1 0 0 0 0 0 0 0 0 0 0 0
36 36 33 28 26 28 32 31 28 26 23 21 18 14 10 7 3 0 0 0 1 2 2 2 1 0 0 0 0 0 0 0 0 0 0 0 0 0 0 0 0 0 0
28 27 24 20 17 19 20 20 17 15 14 13 11 9 7 6 3 1 0 0 0 0 1 1 1 0 0 0 0 0 0 0 0 0 0 0 0 0 0 0 0 0 0
20 19 18 14 11 9 9 9 7 6 5 5 5 4 4 3 2 0 0 0 0 0 0 0 0 0 0 0 0 0 0 0 0 0 0 0 0 0 0 0 0 0 0
13 13 11 8 5 3 2 2 2 1 1 1 1 1 1 1 0 0 0 0 0 0 0 0 0 0 0 0 0 0 0 0 0 0 0 0 0 0 0 0 0 0 0
7 6 4 2 1 0 0 0 0 0 0 0 0 0 0 0 0 0 0 0 0 0 0 0 0 0 0 0 0 0 0 0 0 0 0 0 0 0 0 0 0 0 0
2 2 1 0 0 0 0 0 0 0 0 0 0 0 0 0 0 0 0 0 0 0 0 0 0 0 0 0 0 0 0 0 0 0 0 0 0 0 0 0 0 0 0
0 0 0 0 0 0 0 0 0 0 0 0 0 0 0 0 0 0 0 0 0 0 0 0 0 0 0 0 0 0 0 0 0 0 0 0 0 0 0 0 0 0 0
0 0 0 0 0 0 0 0 0 0 0 0 0 0 0 0 0 0 0 0 0 0 0 0 0 0 0 0 0 0 0 0 0 0 0 0 0 0 0 0 0 0 0
0 0 0 0 0 0 0 0 0 0 0 0 0 0 0 0 0 0 0 0 0 0 0 0 0 0 0 0 0 0 0 0 0 0 0 0 0 0 0 0 0 0 0
0 0 0 0 0 0 0 0 0 0 0 0 0 0 0 0 0 0 0 0 0 0 0 0 0 0 0 0 0 0 0 0 0 0 0 0 0 0 0 0 0 0 0
0 0 0 0 0 0 0 0 0 0 0 0 0 0 0 0 0 0 0 0 0 0 0 0 0 0 0 0 0 0 0 0 0 0 0 0 0 0 0 0 0 0 0
0 0 0 0 0 0 0 0 0 0 0 0 0 0 0 0 0 0 0 0 0 0 0 0 0 0 0 0 0 0 0 0 0 0 0 0 0 0 0 0 0 0 0
0 0 0 0 0 0 0 0 0 0 0 0 0 0 0 0 0 0 0 0 0 0 0 0 0 0 0 0 0 0 0 0 0 0 0 0 0 0 0 0 0 0 0
0 0 0 0 0 0 0 0 0 0 0 0 0 0 0 0 0 0 0 0 0 0 0 0 0 0 0 0 0 0 0 0 0 0 0 0 0 0 0 0 0 0 0
0 0 0 0 0 0 0 0 0 0 0 0 0 0 0 0 0 0 0 0 0 0 0 0 0 0 0 0 0 0 0 0 0 0 0 0 0 0 0 0 0 0 0
Wind_Speed
9 7 7 7 7 6 5 5 4 4 5 6 6 6 6 6 6 5 5 5 5 5 4 3 3 3 2 2 1 2 2 2 2 2 1 2 3 3 4 4 4 6 8
8 7 7 7 7 6 6 5 5 5 5 6 6 6 7 7 6 6 6 6 6 6 5 5 4 4 4 3 2 2 2 1 1 3 2 1 2 4 5 5 5 7 6
9 8 7 7 7 6 6 5 5 5 5 6 7 7 6 6 6 6 6 5 5 5 5 5 4 4 4 3 3 3 2 3 2 2 3 2 2 3 4 5 6 4 7
11 10 9 8 8 7 6 6 6 5 5 6 6 6 6 5 5 5 5 5 4 4 4 4 4 4 4 4 4 3 3 3 3 2 3 3 3 3 2 3 4 4 5
10 10 9 8 7 7 7 6 6 6 7 5 5 5 4 4 4 4 4 5 4 4 3 3 4 4 4 4 4 2 3 3 3 3 3 3 3 2 2 2 3 3 4
8 9 9 8 8 7 7 7 6 6 5 5 5 4 4 4 5 5 4 4 3 4 4 3 4 4 4 5 5 4 2 3 3 3 3 3 3 2 2 2 2 3 4
7 7 7 7 7 7 8 7 6 6 5 4 4 4 3 2 2 4 4 3 3 3 3 3 4 3 3 3 5 5 5 7 6 3 4 4 4 3 2 3 3 4 4
6 6 6 6 6 6 5 5 5 4 4 4 4 4 3 2 3 3 4 3 3 2 2 2 2 2 2 1 3 4 4 5 6 6 5 6 5 3 3 4 5 5 5
6 4 4 4 5 5 4 3 3 3 3 3 3 3 3 2 2 3 3 3 2 2 2 1 1 1 1 1 2 3 3 3 5 6 7 7 8 8 5 3 4 5 6
5 4 4 4 4 5 4 3 3 3 3 3 3 2 3 3 4 4 2 1 1 1 1 2 3 2 1 2 2 2 4 4 4 5 5 7 8 9 9 7 5 5 6
6 7 6 5 5 5 4 4 4 4 4 4 4 4 4 4 5 5 3 1 1 1 1 1 2 2 1 2 2 3 4 4 5 5 4 4 4 4 4 5 5 5 6
9 9 8 7 6 6 6 5 4 4 5 4 4 4 4 4 6 4 4 3 4 2 2 2 2 1 2 2 2 3 4 4 3 4 4 3 3 3 2 3 4 5 6
10 10 9 9 8 7 7 6 5 4 4 4 4 4 5 5 5 6 4 4 4 3 3 3 2 2 3 2 3 3 3 2 2 3 4 3 3 3 3 3 3 4 5
10 9 9 9 9 9 8 7 7 6 6 5 5 5 5 5 5 5 4 3 3 3 3 3 3 3 2 2 1 1 1 2 2 3 3 4 4 3 3 3 3 4 4
9 8 9 9 9 9 10 9 9 8 6 6 6 6 5 5 4 5 4 4 4 3 4 2 1 1 1 1 1 1 2 2 2 3 3 4 4 4 3 3 3 4 4
7 7 7 7 6 7 8 9 14 11 12 13 11 8 6 6 4 6 7 6 6 5 3 2 3 3 3 4 3 3 3 3 3 3 3 4 4 5 5 5 4 4 5
7 6 5 5 5 6 6 6 6 7 10 11 10 10 8 5 5 5 6 7 6 4 2 3 3 4 4 5 5 5 5 4 4 4 4 4 4 5 5 5 5 5 5
7 7 5 4 4 4 4 5 5 5 5 5 5 5 4 3 4 5 6 5 4 4 4 5 5 5 5 5 5 5 5 5 5 4 5 4 4 4 5 5 5 5 5
6 5 4 4 4 4 4 4 5 5 5 5 4 3 1 1 2 4 6 5 6 6 6 6 6 6 5 5 5 5 5 5 5 5 5 5 5 5 6 6 6 7 6
5 6 4 4 5 5 5 5 5 5 6 6 5 5 3 2 3 4 4 5 6 6 6 6 6 6 6 6 6 6 6 6 7 6 6 6 6 6 7 8 7 7 6
4 4 4 5 6 6 5 5 5 5 6 6 6 5 6 4 5 6 6 6 6 6 6 6 6 6 6 6 6 7 8 7 7 7 7 7 8 7 7 7 7 7 7
3 4 5 6 6 5 5 5 5 5 6 5 4 5 5 5 6 6 6 6 6 5 6 5 6 6 6 6 6 7 7 7 8 8 8 8 8 8 8 7 7 7 7
3 5 6 6 5 5 4 6 6 6 6 6 6 5 5 5 5 5 5 5 5 5 5 5 5 5 6 6 6 6 7 7 7 8 9 9 9 8 8 8 9 8 8
5 6 6 6 5 6 6 6 6 6 6 6 6 6 5 5 5 6 6 6 5 5 5 5 5 7 9 7 5 6 6 7 8 8 10 10 10 9 8 8 8 9 8
6 6 6 6 6 6 7 7 7 6 6 6 6 6 6 6 6 6 6 6 6 6 7 6 5 6 9 10 9 8 7 7 7 8 9 8 10 10 9 9 8 8 9
6 6 6 6 6 6 6 6 6 6 5 5 6 6 6 6 6 6 6 6 7 6 6 6 8 9 10 9 10 8 7 8 9 9 8 8 9 9 8 7 10 8 9
Wind_Direction
168 170 164 167 169 165 170 172 165 173 165 174 181 181 186 186 187 196 222 195 196 212 224 218 222 260 300 308 264 248 256 256 266 278 251 163 157 169 164 215 209 197 207
166 163 162 164 167 171 175 171 167 176 182 185 190 190 195 193 190 194 218 215 201 208 218 220 214 222 221 262 292 291 275 263 259 278 285 223 201 197 188 213 230 229 224
164 166 165 169 173 176 181 177 176 181 190 195 195 195 199 195 192 201 210 224 217 214 215 216 218 226 222 228 231 266 286 278 235 250 262 250 235 222 200 219 244 252 259
169 171 172 177 181 179 182 183 182 179 188 198 195 197 199 199 196 202 204 214 220 222 223 221 221 220 219 229 240 243 264 284 286 270 272 266 253 240 213 222 250 244 252
170 171 175 179 180 180 182 186 186 186 196 192 189 191 195 197 203 204 209 214 212 219 225 225 227 222 222 220 235 233 245 249 261 260 261 266 262 261 240 236 257 268 257
171 175 173 176 179 183 186 189 189 191 195 188 191 187 192 211 209 193 201 227 207 212 224 228 234 225 221 221 231 239 236 249 258 268 270 270 273 273 270 264 268 280 279
170 174 171 176 181 185 190 187 188 189 190 186 185 181 188 206 175 170 195 232 233 221 223 230 248 242 202 212 227 237 245 246 235 248 266 277 292 302 306 295 283 277 274
162 174 170 173 180 180 185 186 184 180 181 183 183 182 170 172 154 166 192 213 241 243 229 226 227 283 305 259 235 235 238 242 233 231 240 251 262 277 281 279 277 277 267
159 160 158 168 169 164 170 170 165 167 170 168 157 160 157 145 132 147 175 203 208 236 242 246 222 161 9 332 272 272 270 264 252 246 242 249 253 255 255 272 274 274 275
121 123 127 134 139 141 144 144 145 144 142 140 114 102 102 95 93 96 132 214 227 236 173 111 74 83 58 2 305 288 281 288 296 286 264 260 254 250 238 231 245 258 270
97 94 92 97 106 108 110 109 112 114 116 118 111 100 98 93 100 94 92 42 0 359 29 87 83 69 37 352 297 281 281 294 293 284 276 269 260 252 241 232 233 241 255
83 81 78 74 78 85 89 92 101 113 116 115 110 101 90 82 76 82 78 49 13 12 17 36 44 9 319 299 285 293 306 301 287 290 288 284 282 285 278 266 256 247 245
83 79 75 71 66 64 70 75 77 75 82 89 92 89 78 69 63 59 61 46 20 15 21 29 5 293 287 269 247 277 298 297 304 306 306 310 311 307 310 301 287 274 266
85 83 80 75 70 61 54 55 58 52 54 60 68 72 75 63 46 32 35 36 25 25 1 336 293 266 277 309 305 262 250 287 306 312 321 322 324 324 318 316 311 309 297
84 86 87 82 77 71 63 50 57 51 55 63 61 61 59 60 37 25 25 19 4 10 336 311 327 7 12 6 355 354 342 348 345 336 329 322 318 319 320 326 319 309 299
84 81 83 89 91 93 92 79 55 62 65 68 68 74 77 71 53 33 25 8 358 359 351 356 12 13 12 7 357 354 3 4 352 338 333 331 332 330 326 326 319 310 307
77 76 79 87 92 97 103 103 97 74 63 63 67 71 75 64 39 22 10 353 343 355 14 16 19 15 11 10 5 1 359 356 350 343 341 336 332 327 323 319 318 322 323
73 73 69 75 80 86 93 103 111 116 112 96 77 73 71 50 19 3 357 355 30 42 30 24 23 21 17 13 7 360 351 347 347 340 332 330 327 323 319 319 320 324 320
63 62 61 69 73 73 71 74 79 84 90 99 96 72 27 29 30 8 4 18 30 30 29 28 23 18 14 10 3 355 349 344 345 338 335 336 333 329 323 321 319 320 314
74 59 50 64 69 67 66 67 67 74 78 76 69 49 20 33 57 48 44 32 29 29 27 25 22 16 14 11 6 1 356 353 351 349 347 343 339 333 328 325 321 318 312
95 90 72 58 61 56 53 56 59 63 70 73 72 53 19 30 45 43 40 35 31 27 25 17 13 14 15 9 3 358 357 356 357 354 349 342 334 328 321 316 314 311 311
62 72 69 66 63 54 48 57 62 65 68 71 73 71 43 34 44 43 39 37 33 31 27 13 9 16 14 5 359 356 359 4 360 349 340 332 328 323 316 312 311 311 310
60 75 78 75 73 71 60 57 54 54 54 50 46 48 46 37 39 38 34 31 25 24 22 12 11 16 13 4 4 13 12 3 345 332 326 321 317 315 314 310 308 310 310
56 64 71 72 67 61 58 57 55 52 52 47 44 43 42 42 37 35 34 28 18 17 13 8 10 8 9 11 13 21 17 353 334 324 321 311 306 304 306 307 308 309 307
59 61 63 65 65 63 60 56 54 51 48 46 45 42 38 36 35 30 30 23 11 12 7 7 11 10 13 22 23 14 359 341 328 323 313 303 300 300 301 302 303 304 303
62 62 64 66 66 63 63 64 60 53 51 48 48 45 41 40 36 24 20 17 6 8 6 7 16 22 22 27 19 9 348 334 325 315 305 298 296 299 307 306 308 307 306